<?xml version="1.0" encoding="UTF-8" standalone="no" ?>
<gpx xmlns="http://www.topografix.com/GPX/1/1" xmlns:xsi="http://www.w3.org/2001/XMLSchema-instance" xsi:schemaLocation="http://www.topografix.com/GPX/1/1 http://www.topografix.com/GPX/1/1/gpx.xsd" version="1.1" creator="VisuGPX - https://www.visugpx.com">
  <metadata>
    <name>Cavaliers St Cyr Duerne</name>
    <desc><![CDATA[Rando organisée par la Pierre des 3 communes ]]></desc>
  </metadata>
  <trk>
    <name><![CDATA[Cavaliers St Cyr Duerne gpx]]></name>
    <extensions>
      <line xmlns="http://www.topografix.com/GPX/gpx_style/0/2">
        <color>0000FF</color>
        <width>4</width>
      </line>
    </extensions>
    <trkseg>
      <trkpt lat="45.6593" lon="4.35849">
        <ele>614</ele>
        <time>2024-04-27T11:30:03Z</time>
      </trkpt>
      <trkpt lat="45.65887" lon="4.35764">
        <ele>614</ele>
        <time>2024-04-27T11:30:03Z</time>
      </trkpt>
      <trkpt lat="45.65814" lon="4.35794">
        <ele>615</ele>
        <time>2024-04-27T11:30:03Z</time>
      </trkpt>
      <trkpt lat="45.65729" lon="4.35778">
        <ele>615</ele>
        <time>2024-04-27T11:30:03Z</time>
      </trkpt>
      <trkpt lat="45.65621" lon="4.35793">
        <ele>619</ele>
        <time>2024-04-27T11:30:03Z</time>
      </trkpt>
      <trkpt lat="45.65596" lon="4.35901">
        <ele>613</ele>
        <time>2024-04-27T11:30:03Z</time>
      </trkpt>
      <trkpt lat="45.65551" lon="4.35906">
        <ele>606</ele>
        <time>2024-04-27T11:30:03Z</time>
      </trkpt>
      <trkpt lat="45.65476" lon="4.35813">
        <ele>607</ele>
        <time>2024-04-27T11:30:03Z</time>
      </trkpt>
      <trkpt lat="45.65431" lon="4.35824">
        <ele>602</ele>
        <time>2024-04-27T11:30:03Z</time>
      </trkpt>
      <trkpt lat="45.65334" lon="4.35943">
        <ele>579</ele>
        <time>2024-04-27T11:30:03Z</time>
      </trkpt>
      <trkpt lat="45.65289" lon="4.35948">
        <ele>574</ele>
        <time>2024-04-27T11:30:03Z</time>
      </trkpt>
      <trkpt lat="45.65181" lon="4.35988">
        <ele>555</ele>
        <time>2024-04-27T11:30:03Z</time>
      </trkpt>
      <trkpt lat="45.651" lon="4.35966">
        <ele>547</ele>
        <time>2024-04-27T11:30:03Z</time>
      </trkpt>
      <trkpt lat="45.65088" lon="4.35908">
        <ele>549</ele>
        <time>2024-04-27T11:30:03Z</time>
      </trkpt>
      <trkpt lat="45.6503" lon="4.35842">
        <ele>551</ele>
        <time>2024-04-27T11:30:03Z</time>
      </trkpt>
      <trkpt lat="45.64942" lon="4.35749">
        <ele>553</ele>
        <time>2024-04-27T11:30:03Z</time>
      </trkpt>
      <trkpt lat="45.64869" lon="4.35797">
        <ele>541</ele>
        <time>2024-04-27T11:30:03Z</time>
      </trkpt>
      <trkpt lat="45.64863" lon="4.35906">
        <ele>534</ele>
        <time>2024-04-27T11:30:03Z</time>
      </trkpt>
      <trkpt lat="45.64789" lon="4.35993">
        <ele>516</ele>
        <time>2024-04-27T11:30:03Z</time>
      </trkpt>
      <trkpt lat="45.64819" lon="4.36084">
        <ele>502</ele>
        <time>2024-04-27T11:30:03Z</time>
      </trkpt>
      <trkpt lat="45.64661" lon="4.36101">
        <ele>489</ele>
        <time>2024-04-27T11:30:03Z</time>
      </trkpt>
      <trkpt lat="45.64616" lon="4.36593">
        <ele>501</ele>
        <time>2024-04-27T11:30:03Z</time>
      </trkpt>
      <trkpt lat="45.64766" lon="4.37016">
        <ele>508</ele>
        <time>2024-04-27T11:30:03Z</time>
      </trkpt>
      <trkpt lat="45.64818" lon="4.3739">
        <ele>515</ele>
        <time>2024-04-27T11:30:03Z</time>
      </trkpt>
      <trkpt lat="45.64852" lon="4.37507">
        <ele>515</ele>
        <time>2024-04-27T11:30:03Z</time>
      </trkpt>
      <trkpt lat="45.64868" lon="4.37603">
        <ele>513</ele>
        <time>2024-04-27T11:30:03Z</time>
      </trkpt>
      <trkpt lat="45.64938" lon="4.37689">
        <ele>518</ele>
        <time>2024-04-27T11:30:03Z</time>
      </trkpt>
      <trkpt lat="45.65007" lon="4.37897">
        <ele>533</ele>
        <time>2024-04-27T11:30:03Z</time>
      </trkpt>
      <trkpt lat="45.65074" lon="4.38118">
        <ele>543</ele>
        <time>2024-04-27T11:30:03Z</time>
      </trkpt>
      <trkpt lat="45.6505" lon="4.38245">
        <ele>543</ele>
        <time>2024-04-27T11:30:03Z</time>
      </trkpt>
      <trkpt lat="45.65052" lon="4.38354">
        <ele>551</ele>
        <time>2024-04-27T11:30:03Z</time>
      </trkpt>
      <trkpt lat="45.65136" lon="4.38223">
        <ele>562</ele>
        <time>2024-04-27T11:30:03Z</time>
      </trkpt>
      <trkpt lat="45.65217" lon="4.38207">
        <ele>563</ele>
        <time>2024-04-27T11:30:03Z</time>
      </trkpt>
      <trkpt lat="45.65151" lon="4.38345">
        <ele>572</ele>
        <time>2024-04-27T11:30:03Z</time>
      </trkpt>
      <trkpt lat="45.65204" lon="4.38662">
        <ele>584</ele>
        <time>2024-04-27T11:30:03Z</time>
      </trkpt>
      <trkpt lat="45.65235" lon="4.38932">
        <ele>580</ele>
        <time>2024-04-27T11:30:03Z</time>
      </trkpt>
      <trkpt lat="45.65378" lon="4.39252">
        <ele>572</ele>
        <time>2024-04-27T11:30:03Z</time>
      </trkpt>
      <trkpt lat="45.65209" lon="4.39361">
        <ele>576</ele>
        <time>2024-04-27T11:30:03Z</time>
      </trkpt>
      <trkpt lat="45.65163" lon="4.39417">
        <ele>582</ele>
        <time>2024-04-27T11:30:03Z</time>
      </trkpt>
      <trkpt lat="45.65061" lon="4.39368">
        <ele>594</ele>
        <time>2024-04-27T11:30:03Z</time>
      </trkpt>
      <trkpt lat="45.64867" lon="4.39637">
        <ele>617</ele>
        <time>2024-04-27T11:30:03Z</time>
      </trkpt>
      <trkpt lat="45.64696" lon="4.39855">
        <ele>623</ele>
        <time>2024-04-27T11:30:03Z</time>
      </trkpt>
      <trkpt lat="45.64615" lon="4.39878">
        <ele>627</ele>
        <time>2024-04-27T11:30:03Z</time>
      </trkpt>
      <trkpt lat="45.64478" lon="4.39982">
        <ele>626</ele>
        <time>2024-04-27T11:30:03Z</time>
      </trkpt>
      <trkpt lat="45.64358" lon="4.39868">
        <ele>622</ele>
        <time>2024-04-27T11:30:03Z</time>
      </trkpt>
      <trkpt lat="45.64339" lon="4.39938">
        <ele>618</ele>
        <time>2024-04-27T11:30:03Z</time>
      </trkpt>
      <trkpt lat="45.64364" lon="4.40042">
        <ele>616</ele>
        <time>2024-04-27T11:30:03Z</time>
      </trkpt>
      <trkpt lat="45.64099" lon="4.40263">
        <ele>608</ele>
        <time>2024-04-27T11:30:03Z</time>
      </trkpt>
      <trkpt lat="45.6399" lon="4.40336">
        <ele>605</ele>
        <time>2024-04-27T11:30:03Z</time>
      </trkpt>
      <trkpt lat="45.63871" lon="4.40684">
        <ele>578</ele>
        <time>2024-04-27T11:30:03Z</time>
      </trkpt>
      <trkpt lat="45.6391" lon="4.40775">
        <ele>574</ele>
        <time>2024-04-27T11:30:03Z</time>
      </trkpt>
      <trkpt lat="45.63925" lon="4.40923">
        <ele>559</ele>
        <time>2024-04-27T11:30:03Z</time>
      </trkpt>
      <trkpt lat="45.6405" lon="4.40986">
        <ele>562</ele>
        <time>2024-04-27T11:30:03Z</time>
      </trkpt>
      <trkpt lat="45.64035" lon="4.41069">
        <ele>563</ele>
        <time>2024-04-27T11:30:03Z</time>
      </trkpt>
      <trkpt lat="45.6398" lon="4.41086">
        <ele>561</ele>
        <time>2024-04-27T11:30:03Z</time>
      </trkpt>
      <trkpt lat="45.64056" lon="4.41134">
        <ele>582</ele>
        <time>2024-04-27T11:30:03Z</time>
      </trkpt>
      <trkpt lat="45.6404" lon="4.41293">
        <ele>603</ele>
        <time>2024-04-27T11:30:03Z</time>
      </trkpt>
      <trkpt lat="45.63961" lon="4.41412">
        <ele>608</ele>
        <time>2024-04-27T11:30:03Z</time>
      </trkpt>
      <trkpt lat="45.64175" lon="4.41529">
        <ele>646</ele>
        <time>2024-04-27T11:30:03Z</time>
      </trkpt>
      <trkpt lat="45.64244" lon="4.41673">
        <ele>657</ele>
        <time>2024-04-27T11:30:03Z</time>
      </trkpt>
      <trkpt lat="45.64305" lon="4.41765">
        <ele>662</ele>
        <time>2024-04-27T11:30:03Z</time>
      </trkpt>
      <trkpt lat="45.64372" lon="4.41826">
        <ele>669</ele>
        <time>2024-04-27T11:30:03Z</time>
      </trkpt>
      <trkpt lat="45.64438" lon="4.41873">
        <ele>670</ele>
        <time>2024-04-27T11:30:03Z</time>
      </trkpt>
      <trkpt lat="45.64476" lon="4.42016">
        <ele>681</ele>
        <time>2024-04-27T11:30:03Z</time>
      </trkpt>
      <trkpt lat="45.64507" lon="4.42042">
        <ele>677</ele>
        <time>2024-04-27T11:30:03Z</time>
      </trkpt>
      <trkpt lat="45.64483" lon="4.42157">
        <ele>689</ele>
        <time>2024-04-27T11:30:03Z</time>
      </trkpt>
      <trkpt lat="45.64555" lon="4.42371">
        <ele>682</ele>
        <time>2024-04-27T11:30:03Z</time>
      </trkpt>
      <trkpt lat="45.64559" lon="4.42404">
        <ele>684</ele>
        <time>2024-04-27T11:30:03Z</time>
      </trkpt>
      <trkpt lat="45.6465" lon="4.42587">
        <ele>682</ele>
        <time>2024-04-27T11:30:03Z</time>
      </trkpt>
      <trkpt lat="45.64778" lon="4.42726">
        <ele>679</ele>
        <time>2024-04-27T11:30:03Z</time>
      </trkpt>
      <trkpt lat="45.64797" lon="4.42932">
        <ele>678</ele>
        <time>2024-04-27T11:30:03Z</time>
      </trkpt>
      <trkpt lat="45.64841" lon="4.42953">
        <ele>676</ele>
        <time>2024-04-27T11:30:03Z</time>
      </trkpt>
      <trkpt lat="45.65033" lon="4.43063">
        <ele>676</ele>
        <time>2024-04-27T11:30:03Z</time>
      </trkpt>
      <trkpt lat="45.6509" lon="4.43142">
        <ele>677</ele>
        <time>2024-04-27T11:30:03Z</time>
      </trkpt>
      <trkpt lat="45.65075" lon="4.43225">
        <ele>685</ele>
        <time>2024-04-27T11:30:03Z</time>
      </trkpt>
      <trkpt lat="45.65083" lon="4.43277">
        <ele>693</ele>
        <time>2024-04-27T11:30:03Z</time>
      </trkpt>
      <trkpt lat="45.65196" lon="4.43217">
        <ele>680</ele>
        <time>2024-04-27T11:30:03Z</time>
      </trkpt>
      <trkpt lat="45.65229" lon="4.43379">
        <ele>697</ele>
        <time>2024-04-27T11:30:03Z</time>
      </trkpt>
      <trkpt lat="45.65221" lon="4.43564">
        <ele>717</ele>
        <time>2024-04-27T11:30:03Z</time>
      </trkpt>
      <trkpt lat="45.65165" lon="4.43678">
        <ele>729</ele>
        <time>2024-04-27T11:30:03Z</time>
      </trkpt>
      <trkpt lat="45.65141" lon="4.43754">
        <ele>722</ele>
        <time>2024-04-27T11:30:03Z</time>
      </trkpt>
      <trkpt lat="45.65247" lon="4.43873">
        <ele>744</ele>
        <time>2024-04-27T11:30:03Z</time>
      </trkpt>
      <trkpt lat="45.65251" lon="4.43918">
        <ele>744</ele>
        <time>2024-04-27T11:30:03Z</time>
      </trkpt>
      <trkpt lat="45.65356" lon="4.44044">
        <ele>750</ele>
        <time>2024-04-27T11:30:03Z</time>
      </trkpt>
      <trkpt lat="45.65402" lon="4.44245">
        <ele>753</ele>
        <time>2024-04-27T11:30:03Z</time>
      </trkpt>
      <trkpt lat="45.65424" lon="4.44246">
        <ele>759</ele>
        <time>2024-04-27T11:30:03Z</time>
      </trkpt>
      <trkpt lat="45.65533" lon="4.44436">
        <ele>758</ele>
        <time>2024-04-27T11:30:03Z</time>
      </trkpt>
      <trkpt lat="45.65654" lon="4.4446">
        <ele>753</ele>
        <time>2024-04-27T11:30:03Z</time>
      </trkpt>
      <trkpt lat="45.65666" lon="4.44544">
        <ele>754</ele>
        <time>2024-04-27T11:30:03Z</time>
      </trkpt>
      <trkpt lat="45.6563" lon="4.44581">
        <ele>749</ele>
        <time>2024-04-27T11:30:03Z</time>
      </trkpt>
      <trkpt lat="45.65656" lon="4.44614">
        <ele>749</ele>
        <time>2024-04-27T11:30:03Z</time>
      </trkpt>
      <trkpt lat="45.65707" lon="4.44526">
        <ele>752</ele>
        <time>2024-04-27T11:30:03Z</time>
      </trkpt>
      <trkpt lat="45.65891" lon="4.44546">
        <ele>729</ele>
        <time>2024-04-27T11:30:03Z</time>
      </trkpt>
      <trkpt lat="45.65958" lon="4.44593">
        <ele>723</ele>
        <time>2024-04-27T11:30:03Z</time>
      </trkpt>
      <trkpt lat="45.66092" lon="4.4465">
        <ele>696</ele>
        <time>2024-04-27T11:30:03Z</time>
      </trkpt>
      <trkpt lat="45.66116" lon="4.44792">
        <ele>704</ele>
        <time>2024-04-27T11:30:03Z</time>
      </trkpt>
      <trkpt lat="45.6612" lon="4.4485">
        <ele>704</ele>
        <time>2024-04-27T11:30:03Z</time>
      </trkpt>
      <trkpt lat="45.66071" lon="4.45066">
        <ele>715</ele>
        <time>2024-04-27T11:30:03Z</time>
      </trkpt>
      <trkpt lat="45.6604" lon="4.45245">
        <ele>728</ele>
        <time>2024-04-27T11:30:03Z</time>
      </trkpt>
      <trkpt lat="45.6599" lon="4.45256">
        <ele>733</ele>
        <time>2024-04-27T11:30:03Z</time>
      </trkpt>
      <trkpt lat="45.66099" lon="4.45491">
        <ele>723</ele>
        <time>2024-04-27T11:30:03Z</time>
      </trkpt>
      <trkpt lat="45.66159" lon="4.45647">
        <ele>721</ele>
        <time>2024-04-27T11:30:03Z</time>
      </trkpt>
      <trkpt lat="45.66225" lon="4.45695">
        <ele>724</ele>
        <time>2024-04-27T11:30:03Z</time>
      </trkpt>
      <trkpt lat="45.66045" lon="4.45713">
        <ele>708</ele>
        <time>2024-04-27T11:30:03Z</time>
      </trkpt>
      <trkpt lat="45.65861" lon="4.457">
        <ele>689</ele>
        <time>2024-04-27T11:30:03Z</time>
      </trkpt>
      <trkpt lat="45.65795" lon="4.45832">
        <ele>680</ele>
        <time>2024-04-27T11:30:03Z</time>
      </trkpt>
      <trkpt lat="45.65689" lon="4.45963">
        <ele>666</ele>
        <time>2024-04-27T11:30:03Z</time>
      </trkpt>
      <trkpt lat="45.65601" lon="4.46357">
        <ele>659</ele>
        <time>2024-04-27T11:30:03Z</time>
      </trkpt>
      <trkpt lat="45.65445" lon="4.46486">
        <ele>644</ele>
        <time>2024-04-27T11:30:03Z</time>
      </trkpt>
      <trkpt lat="45.65143" lon="4.46526">
        <ele>618</ele>
        <time>2024-04-27T11:30:03Z</time>
      </trkpt>
      <trkpt lat="45.65093" lon="4.46575">
        <ele>615</ele>
        <time>2024-04-27T11:30:03Z</time>
      </trkpt>
      <trkpt lat="45.65067" lon="4.46754">
        <ele>630</ele>
        <time>2024-04-27T11:30:03Z</time>
      </trkpt>
      <trkpt lat="45.65129" lon="4.46782">
        <ele>630</ele>
        <time>2024-04-27T11:30:03Z</time>
      </trkpt>
      <trkpt lat="45.65082" lon="4.46902">
        <ele>645</ele>
        <time>2024-04-27T11:30:03Z</time>
      </trkpt>
      <trkpt lat="45.65071" lon="4.46998">
        <ele>656</ele>
        <time>2024-04-27T11:30:03Z</time>
      </trkpt>
      <trkpt lat="45.65022" lon="4.4697">
        <ele>654</ele>
        <time>2024-04-27T11:30:03Z</time>
      </trkpt>
      <trkpt lat="45.6493" lon="4.47076">
        <ele>655</ele>
        <time>2024-04-27T11:30:03Z</time>
      </trkpt>
      <trkpt lat="45.64928" lon="4.47178">
        <ele>649</ele>
        <time>2024-04-27T11:30:03Z</time>
      </trkpt>
      <trkpt lat="45.64949" lon="4.47275">
        <ele>642</ele>
        <time>2024-04-27T11:30:03Z</time>
      </trkpt>
      <trkpt lat="45.64907" lon="4.47357">
        <ele>631</ele>
        <time>2024-04-27T11:30:03Z</time>
      </trkpt>
      <trkpt lat="45.64895" lon="4.47485">
        <ele>632</ele>
        <time>2024-04-27T11:30:03Z</time>
      </trkpt>
      <trkpt lat="45.64753" lon="4.47415">
        <ele>637</ele>
        <time>2024-04-27T11:30:03Z</time>
      </trkpt>
      <trkpt lat="45.64658" lon="4.47431">
        <ele>641</ele>
        <time>2024-04-27T11:30:03Z</time>
      </trkpt>
      <trkpt lat="45.64552" lon="4.47536">
        <ele>644</ele>
        <time>2024-04-27T11:30:03Z</time>
      </trkpt>
      <trkpt lat="45.64448" lon="4.47596">
        <ele>644</ele>
        <time>2024-04-27T11:30:03Z</time>
      </trkpt>
      <trkpt lat="45.6435" lon="4.47541">
        <ele>639</ele>
        <time>2024-04-27T11:30:03Z</time>
      </trkpt>
      <trkpt lat="45.63983" lon="4.47636">
        <ele>609</ele>
        <time>2024-04-27T11:30:03Z</time>
      </trkpt>
      <trkpt lat="45.64048" lon="4.47798">
        <ele>611</ele>
        <time>2024-04-27T11:30:03Z</time>
      </trkpt>
      <trkpt lat="45.64101" lon="4.48076">
        <ele>614</ele>
        <time>2024-04-27T11:30:03Z</time>
      </trkpt>
      <trkpt lat="45.64104" lon="4.48141">
        <ele>620</ele>
        <time>2024-04-27T11:30:03Z</time>
      </trkpt>
      <trkpt lat="45.64169" lon="4.48278">
        <ele>630</ele>
        <time>2024-04-27T11:30:03Z</time>
      </trkpt>
      <trkpt lat="45.64212" lon="4.48401">
        <ele>641</ele>
        <time>2024-04-27T11:30:03Z</time>
      </trkpt>
      <trkpt lat="45.64207" lon="4.48652">
        <ele>656</ele>
        <time>2024-04-27T11:30:03Z</time>
      </trkpt>
      <trkpt lat="45.64238" lon="4.48909">
        <ele>662</ele>
        <time>2024-04-27T11:30:03Z</time>
      </trkpt>
      <trkpt lat="45.64261" lon="4.49116">
        <ele>671</ele>
        <time>2024-04-27T11:30:03Z</time>
      </trkpt>
      <trkpt lat="45.64331" lon="4.49458">
        <ele>679</ele>
        <time>2024-04-27T11:30:03Z</time>
      </trkpt>
      <trkpt lat="45.64307" lon="4.49515">
        <ele>679</ele>
        <time>2024-04-27T11:30:03Z</time>
      </trkpt>
      <trkpt lat="45.64275" lon="4.49809">
        <ele>684</ele>
        <time>2024-04-27T11:30:03Z</time>
      </trkpt>
      <trkpt lat="45.64357" lon="4.49953">
        <ele>695</ele>
        <time>2024-04-27T11:30:03Z</time>
      </trkpt>
      <trkpt lat="45.64475" lon="4.50157">
        <ele>687</ele>
        <time>2024-04-27T11:30:03Z</time>
      </trkpt>
      <trkpt lat="45.64542" lon="4.50416">
        <ele>695</ele>
        <time>2024-04-27T11:30:03Z</time>
      </trkpt>
      <trkpt lat="45.64563" lon="4.50507">
        <ele>688</ele>
        <time>2024-04-27T11:30:03Z</time>
      </trkpt>
      <trkpt lat="45.64683" lon="4.50576">
        <ele>690</ele>
        <time>2024-04-27T11:30:03Z</time>
      </trkpt>
      <trkpt lat="45.64726" lon="4.50661">
        <ele>694</ele>
        <time>2024-04-27T11:30:03Z</time>
      </trkpt>
      <trkpt lat="45.64706" lon="4.50775">
        <ele>690</ele>
        <time>2024-04-27T11:30:03Z</time>
      </trkpt>
      <trkpt lat="45.64716" lon="4.50949">
        <ele>685</ele>
        <time>2024-04-27T11:30:03Z</time>
      </trkpt>
      <trkpt lat="45.64801" lon="4.50952">
        <ele>688</ele>
        <time>2024-04-27T11:30:03Z</time>
      </trkpt>
      <trkpt lat="45.64913" lon="4.50989">
        <ele>670</ele>
        <time>2024-04-27T11:30:03Z</time>
      </trkpt>
      <trkpt lat="45.65042" lon="4.51084">
        <ele>661</ele>
        <time>2024-04-27T11:30:03Z</time>
      </trkpt>
      <trkpt lat="45.65145" lon="4.51088">
        <ele>655</ele>
        <time>2024-04-27T11:30:03Z</time>
      </trkpt>
      <trkpt lat="45.65246" lon="4.51015">
        <ele>657</ele>
        <time>2024-04-27T11:30:03Z</time>
      </trkpt>
      <trkpt lat="45.65277" lon="4.51016">
        <ele>658</ele>
        <time>2024-04-27T11:30:03Z</time>
      </trkpt>
      <trkpt lat="45.65249" lon="4.5106">
        <ele>657</ele>
        <time>2024-04-27T11:30:03Z</time>
      </trkpt>
      <trkpt lat="45.65252" lon="4.51175">
        <ele>669</ele>
        <time>2024-04-27T11:30:03Z</time>
      </trkpt>
      <trkpt lat="45.65241" lon="4.51278">
        <ele>680</ele>
        <time>2024-04-27T11:30:03Z</time>
      </trkpt>
      <trkpt lat="45.65168" lon="4.51307">
        <ele>674</ele>
        <time>2024-04-27T11:30:03Z</time>
      </trkpt>
      <trkpt lat="45.65072" lon="4.51399">
        <ele>672</ele>
        <time>2024-04-27T11:30:03Z</time>
      </trkpt>
      <trkpt lat="45.64986" lon="4.51415">
        <ele>659</ele>
        <time>2024-04-27T11:30:03Z</time>
      </trkpt>
      <trkpt lat="45.64841" lon="4.51461">
        <ele>653</ele>
        <time>2024-04-27T11:30:03Z</time>
      </trkpt>
      <trkpt lat="45.64829" lon="4.51646">
        <ele>672</ele>
        <time>2024-04-27T11:30:03Z</time>
      </trkpt>
      <trkpt lat="45.64748" lon="4.51829">
        <ele>690</ele>
        <time>2024-04-27T11:30:03Z</time>
      </trkpt>
      <trkpt lat="45.64781" lon="4.51997">
        <ele>701</ele>
        <time>2024-04-27T11:30:03Z</time>
      </trkpt>
      <trkpt lat="45.64844" lon="4.52218">
        <ele>692</ele>
        <time>2024-04-27T11:30:03Z</time>
      </trkpt>
      <trkpt lat="45.64896" lon="4.52355">
        <ele>689</ele>
        <time>2024-04-27T11:30:03Z</time>
      </trkpt>
      <trkpt lat="45.64975" lon="4.5266">
        <ele>691</ele>
        <time>2024-04-27T11:30:03Z</time>
      </trkpt>
      <trkpt lat="45.65126" lon="4.528">
        <ele>682</ele>
        <time>2024-04-27T11:30:03Z</time>
      </trkpt>
      <trkpt lat="45.65265" lon="4.52793">
        <ele>690</ele>
        <time>2024-04-27T11:30:03Z</time>
      </trkpt>
      <trkpt lat="45.65362" lon="4.52925">
        <ele>684</ele>
        <time>2024-04-27T11:30:03Z</time>
      </trkpt>
      <trkpt lat="45.65334" lon="4.52963">
        <ele>685</ele>
        <time>2024-04-27T11:30:03Z</time>
      </trkpt>
      <trkpt lat="45.65374" lon="4.53003">
        <ele>680</ele>
        <time>2024-04-27T11:30:03Z</time>
      </trkpt>
      <trkpt lat="45.6547" lon="4.52897">
        <ele>669</ele>
        <time>2024-04-27T11:30:03Z</time>
      </trkpt>
      <trkpt lat="45.65525" lon="4.52842">
        <ele>675</ele>
        <time>2024-04-27T11:30:03Z</time>
      </trkpt>
      <trkpt lat="45.65966" lon="4.52872">
        <ele>734</ele>
        <time>2024-04-27T11:30:03Z</time>
      </trkpt>
      <trkpt lat="45.66109" lon="4.52897">
        <ele>758</ele>
        <time>2024-04-27T11:30:03Z</time>
      </trkpt>
      <trkpt lat="45.66146" lon="4.52873">
        <ele>763</ele>
        <time>2024-04-27T11:30:03Z</time>
      </trkpt>
      <trkpt lat="45.66355" lon="4.52734">
        <ele>772</ele>
        <time>2024-04-27T11:30:03Z</time>
      </trkpt>
      <trkpt lat="45.6644" lon="4.52795">
        <ele>770</ele>
        <time>2024-04-27T11:30:03Z</time>
      </trkpt>
      <trkpt lat="45.6649" lon="4.52758">
        <ele>767</ele>
        <time>2024-04-27T11:30:03Z</time>
      </trkpt>
      <trkpt lat="45.66709" lon="4.52619">
        <ele>755</ele>
        <time>2024-04-27T11:30:03Z</time>
      </trkpt>
      <trkpt lat="45.66827" lon="4.5256">
        <ele>750</ele>
        <time>2024-04-27T11:30:03Z</time>
      </trkpt>
      <trkpt lat="45.67025" lon="4.52548">
        <ele>731</ele>
        <time>2024-04-27T11:30:03Z</time>
      </trkpt>
      <trkpt lat="45.67093" lon="4.52506">
        <ele>719</ele>
        <time>2024-04-27T11:30:03Z</time>
      </trkpt>
      <trkpt lat="45.67204" lon="4.52607">
        <ele>722</ele>
        <time>2024-04-27T11:30:03Z</time>
      </trkpt>
      <trkpt lat="45.67237" lon="4.52518">
        <ele>725</ele>
        <time>2024-04-27T11:30:03Z</time>
      </trkpt>
      <trkpt lat="45.67344" lon="4.52561">
        <ele>732</ele>
        <time>2024-04-27T11:30:03Z</time>
      </trkpt>
      <trkpt lat="45.67474" lon="4.52586">
        <ele>736</ele>
        <time>2024-04-27T11:30:03Z</time>
      </trkpt>
      <trkpt lat="45.67549" lon="4.52678">
        <ele>741</ele>
        <time>2024-04-27T11:30:03Z</time>
      </trkpt>
      <trkpt lat="45.67626" lon="4.52669">
        <ele>741</ele>
        <time>2024-04-27T11:30:03Z</time>
      </trkpt>
      <trkpt lat="45.67662" lon="4.52651">
        <ele>740</ele>
        <time>2024-04-27T11:30:03Z</time>
      </trkpt>
      <trkpt lat="45.67824" lon="4.5267">
        <ele>757</ele>
        <time>2024-04-27T11:30:03Z</time>
      </trkpt>
      <trkpt lat="45.67915" lon="4.52622">
        <ele>766</ele>
        <time>2024-04-27T11:30:03Z</time>
      </trkpt>
      <trkpt lat="45.68117" lon="4.52643">
        <ele>781</ele>
        <time>2024-04-27T11:30:03Z</time>
      </trkpt>
      <trkpt lat="45.68215" lon="4.52654">
        <ele>790</ele>
        <time>2024-04-27T11:30:03Z</time>
      </trkpt>
      <trkpt lat="45.68253" lon="4.52591">
        <ele>793</ele>
        <time>2024-04-27T11:30:03Z</time>
      </trkpt>
    </trkseg>
  </trk>
</gpx>